Location: ?????
(31.8092°N, 35.2590°E)
Time: 17:22:19
(UTC+00:00)

Cosmos 1455 Rocket - Pass Details

Date: 20 June 2021
Orbit: 604 x 630 km, 82.5° (Epoch: 04 August)

Event Time Altitude Azimuth Distance (km) Brightness Sun altitude
Rises 18:22:37 0° 1° (N) 2,921 7.2 -17.2°
Reaches altitude 10° 18:24:56 10° 7° (N) 2,011 6.2 -17.6°
Maximum altitude 18:29:14 47° 81° (E) 834 3.4 -18.3°
Enters shadow 18:30:18 39° 122° (ESE) 949 3.5 -18.4°
